Home   Weather   Tabatinga   Past weeks

Flag for Brazil Past Weather in Tabatinga, Amazonas, Brazil — Yesterday and Last 2 Weeks

Now
73 °F

Partly cloudy.


Feels Like: 68 °F
Forecast: 74 / 88 °F
Wind: No wind

Location: Leticia / Vasquez Cobo

Current Time: Jan 17, 2017 at 6:08:36 am

Latest Report: Jan 17, 2017 at 5:00 am


Visibility: N/A

Pressure: 29.78 "Hg

Humidity: 100%

Dew Point: 73 °F

Location of TabatingaLocation

Past Weather in Tabatinga — Graph

°F

Tabatinga Temperature Yesterday

Maximum temperature yesterday: 84 °F (at 4:00 pm)
Minimum temperature yesterday: 75 °F (at 4:00 am)
Average temperature yesterday: 78 °F

High & Low Weather Summary for the Past Weeks

 TemperatureHumidityPressure
High90 °F (Jan 4, 12:00 pm)100% (Jan 3, 1:00 am)30.28 "Hg (Jan 3, 1:00 am)
Low50 °F (Jan 13, 3:00 am)59% (Jan 8, 3:00 pm)29.66 "Hg (Jan 15, 4:00 pm)
Average79 °F89%29.84 "Hg
* Reported Jan 2 5:00 am — Jan 17 5:00 am, Tabatinga, Weather by CustomWeather, © 2017

Note: Actual official high and low records may vary slightly from our data, if they occured in-between our weather recording intervals... More about our weather records

Advertising

Tabatinga Weather History for the Previous 24 Hours

Scroll right to see more
 ConditionsComfort  
Time TempWeatherWind HumidityBarometerVisibility
5:00 am
Tue, Jan 17
73 °FPartly cloudy.No wind100%29.78 "HgN/A
4:00 am75 °FPassing clouds.No wind94%29.78 "HgN/A
3:00 am75 °FPartly cloudy.No wind100%29.78 "HgN/A
2:00 am75 °FPassing clouds.No wind100%29.79 "HgN/A
1:00 am75 °FPassing clouds.No wind94%29.79 "Hg5 mi
12:00 am59 °FCool.No wind94%30.28 "Hg3 mi
11:00 pm
Mon, Jan 16
77 °FPassing clouds.No wind94%29.83 "Hg3 mi
10:00 pm77 °FPartly cloudy.No wind94%29.83 "HgN/A
9:00 pm77 °FPassing clouds.No wind94%29.82 "HgN/A
8:00 pm77 °FPassing clouds.No wind94%29.82 "HgN/A
7:00 pm79 °FPassing clouds.No wind89%29.81 "HgN/A
6:00 pm81 °FPassing clouds.No wind84%29.82 "HgN/A
5:00 pm82 °FBroken clouds.No wind79%29.81 "HgN/A
4:00 pm84 °FScattered clouds.5 mph74%29.78 "HgN/A
3:00 pm82 °FBroken clouds.5 mph79%29.79 "HgN/A
2:00 pm82 °FBroken clouds.5 mph79%29.82 "HgN/A
1:00 pm81 °FBroken clouds.5 mph84%29.84 "HgN/A
12:00 pm77 °FPartly sunny.5 mph89%29.86 "HgN/A
11:00 am75 °FDrizzle. Partly sunny.5 mph94%29.89 "Hg5 mi
10:00 am75 °FDrizzle. Low clouds.No wind100%29.90 "Hg5 mi
9:00 am77 °FDrizzle. Low clouds.No wind94%29.89 "Hg5 mi
8:00 am77 °FDrizzle. Low clouds.No wind94%29.87 "Hg4 mi
7:00 am77 °FDrizzle. Low clouds.No wind94%29.84 "Hg4 mi
6:00 am77 °FScattered showers. Partly sunny.No wind94%29.81 "Hg4 mi
Weather by CustomWeather, © 2017

See weather overviewHow to use our weather pages